Weather History for Morganton, NC

Change the Weather History Date:

Tuesday, June 3, 2014

  Actual Average (KHKY) Record (KHKY)
Temperature  
Mean Temperature 66 °F -  
Max Temperature 81 °F 81 °F 99 °F (1951)
Min Temperature 52 °F 60 °F 47 °F (1956)
Cooling Degree Days 2    
Growing Degree Days 16 (Base 50)    
Moisture  
Dew Point 60 °F    
Average Humidity 80    
Maximum Humidity 100    
Minimum Humidity 51    
Precipitation  
Precipitation 0.00 in - - ()
Sea Level Pressure  
Sea Level Pressure 30.13 in    
Wind  
Wind Speed 1 mph (NW)    
Max Wind Speed 8 mph    
Max Gust Speed -    
Averages and records for this station are not official NWS values.
T = Trace of Precipitation, MM = Missing Value Source: NWS Daily Summary

Daily Weather History Graph

Daily Weather History Graph

Search for Another Location

Airport:

Trip Planner

Search our weather history database for the weather conditions in past years. The results will help you decide how hot, cold, wet, or windy it might be!

Date:

Astronomy

Jun. 03, 2014 Rise Set
Actual Time 6:10 AM EDT 8:38 PM EDT
Civil Twilight 5:41 AM EDT 9:08 PM EDT
Nautical Twilight 5:04 AM EDT 9:45 PM EDT
Astronomical Twilight 4:24 AM EDT 10:25 PM EDT
Moon 11:26 AM EDT (6/3) 12:12 AM EDT (6/3)
Length of Visible Light 15h 27m
Length of Day
14h 27m
Waxing Crescent, 30% of the Moon is Illuminated
Jun 3
Waxing Crescent
Jun 5
First Quarter
Jun 13
Full
Jun 19
Last Quarter
Jun 27
New

Hourly Weather History & Observations

Time (EDT) Temp. Heat Index Dew Point Humidity Pressure Visibility Wind Dir Wind Speed Gust Speed Precip Events Conditions
12:15 AM 55.8 °F - 55.6 °F 99% 30.20 in - Calm Calm - N/A   Unknown
12:35 AM 55.4 °F - 55.2 °F 99% 30.20 in - Calm Calm - N/A   Unknown
12:55 AM 55.4 °F - 55.4 °F 100% 30.20 in - Calm Calm - N/A   Unknown
1:15 AM 54.7 °F - 54.5 °F 99% 30.20 in - Calm Calm - N/A   Unknown
1:35 AM 54.5 °F - 54.5 °F 100% 30.19 in - Calm Calm - N/A   Unknown
1:55 AM 54.5 °F - 54.5 °F 100% 30.18 in - Calm Calm - N/A   Unknown
2:15 AM 53.8 °F - 53.8 °F 100% 30.17 in - Calm Calm - N/A   Unknown
2:35 AM 55.6 °F - 55.6 °F 100% 30.17 in - Calm Calm - N/A   Unknown
2:55 AM 54.7 °F - 54.7 °F 100% 30.17 in - Calm Calm - N/A   Unknown
3:15 AM 53.6 °F - 53.6 °F 100% 30.17 in - Calm Calm - N/A   Unknown
3:35 AM 53.6 °F - 53.6 °F 100% 30.16 in - Calm Calm - N/A   Unknown
3:55 AM 53.2 °F - 53.2 °F 100% 30.16 in - Calm Calm - N/A   Unknown
4:15 AM 52.9 °F - 52.9 °F 100% 30.16 in - Calm Calm - N/A   Unknown
4:35 AM 53.6 °F - 53.6 °F 100% 30.16 in - Calm Calm - N/A   Unknown
4:55 AM 53.8 °F - 53.8 °F 100% 30.16 in - Calm Calm - N/A   Unknown
5:15 AM 53.1 °F - 53.1 °F 100% 30.16 in - Calm Calm - N/A   Unknown
5:35 AM 53.2 °F - 53.2 °F 100% 30.16 in - Calm Calm - N/A   Unknown
5:55 AM 53.6 °F - 53.6 °F 100% 30.17 in - Calm Calm - N/A   Unknown
6:15 AM 53.8 °F - 53.8 °F 100% 30.17 in - Calm Calm - N/A   Unknown
6:35 AM 52.9 °F - 52.9 °F 100% 30.17 in - Calm Calm - N/A   Unknown
6:55 AM 54.9 °F - 54.9 °F 100% 30.17 in - Calm Calm - N/A   Unknown
7:15 AM 56.1 °F - 56.1 °F 100% 30.18 in - Calm Calm - N/A   Unknown
7:35 AM 58.1 °F - 58.1 °F 100% 30.17 in - Calm Calm - N/A   Unknown
7:55 AM 59.7 °F - 59.0 °F 97% 30.17 in - Calm Calm - N/A   Unknown
8:15 AM 62.6 °F - 59.7 °F 90% 30.17 in - Calm Calm - N/A   Unknown
8:35 AM 63.5 °F - 57.6 °F 81% 30.17 in - Calm Calm - N/A   Clear
8:55 AM 64.9 °F - 59.0 °F 81% 30.17 in - Calm Calm - N/A   Clear
9:15 AM 66.2 °F - 59.0 °F 78% 30.17 in - Calm Calm - N/A   Clear
9:35 AM 69.3 °F - 60.6 °F 74% 30.17 in - Calm Calm - N/A   Clear
9:55 AM 70.7 °F - 61.0 °F 71% 30.16 in - Calm Calm - N/A   Clear
10:15 AM 72.5 °F - 60.6 °F 66% 30.16 in - Calm Calm - N/A   Scattered Clouds
10:35 AM 73.8 °F - 60.6 °F 63% 30.16 in - Calm Calm - N/A   Scattered Clouds
10:55 AM 75.7 °F - 60.8 °F 60% 30.16 in - Calm Calm - N/A   Clear
11:15 AM 76.5 °F - 61.0 °F 59% 30.16 in - South 3.5 mph - N/A   Clear
11:35 AM 77.5 °F - 59.7 °F 54% 30.16 in - Calm Calm - N/A   Scattered Clouds
11:55 AM 78.1 °F - 60.3 °F 54% 30.16 in - SW 3.5 mph - N/A   Mostly Cloudy
12:15 PM 78.8 °F - 60.4 °F 53% 30.15 in - SSW 5.8 mph - N/A   Scattered Clouds
12:35 PM 78.8 °F - 61.0 °F 54% 30.15 in - NNW 4.6 mph - N/A   Mostly Cloudy
12:55 PM 79.7 °F - 61.2 °F 53% 30.15 in - North 5.8 mph - N/A   Overcast
1:15 PM 80.4 °F 81.4 °F 61.3 °F 52% 30.14 in - NNW 5.8 mph - N/A   Mostly Cloudy
1:35 PM 79.7 °F - 61.9 °F 54% 30.14 in - NW 8.1 mph - N/A   Mostly Cloudy
1:55 PM 77.9 °F - 61.2 °F 56% 30.14 in - NNW 6.9 mph - N/A   Overcast
2:15 PM 78.3 °F - 62.1 °F 57% 30.14 in - North 5.8 mph - N/A   Mostly Cloudy
2:35 PM 76.8 °F - 63.1 °F 63% 30.13 in - NNW 4.6 mph - N/A   Overcast
2:55 PM 77.0 °F - 63.0 °F 62% 30.13 in - Calm Calm - N/A   Mostly Cloudy
3:15 PM 75.9 °F - 64.8 °F 68% 30.13 in - NNW 3.5 mph - N/A   Overcast
3:35 PM 76.5 °F - 65.3 °F 68% 30.12 in - West 3.5 mph - N/A   Overcast
3:55 PM 78.8 °F - 64.4 °F 61% 30.10 in - Calm Calm - N/A   Overcast
4:15 PM 79.3 °F - 63.3 °F 58% 30.10 in - Calm Calm - N/A   Mostly Cloudy
4:35 PM 79.9 °F - 64.6 °F 59% 30.09 in - Calm Calm - N/A   Overcast
4:55 PM 81.5 °F 82.9 °F 63.9 °F 55% 30.08 in - WSW 3.5 mph - N/A   Overcast
5:15 PM 80.1 °F 81.6 °F 63.7 °F 57% 30.08 in - Calm Calm - N/A   Overcast
5:35 PM 81.0 °F 82.5 °F 63.7 °F 56% 30.08 in - Calm Calm - N/A   Mostly Cloudy
5:55 PM 81.7 °F 82.9 °F 63.1 °F 53% 30.07 in - SW 5.8 mph - N/A   Scattered Clouds
6:15 PM 80.6 °F 81.9 °F 63.0 °F 55% 30.07 in - WNW 8.1 mph - N/A   Scattered Clouds
6:35 PM 80.2 °F 81.1 °F 60.6 °F 51% 30.06 in - North 6.9 mph - N/A   Scattered Clouds
6:55 PM 79.2 °F - 62.6 °F 57% 30.06 in - NNE 3.5 mph - N/A   Scattered Clouds
7:15 PM 78.3 °F - 62.1 °F 57% 30.06 in - NNW 3.5 mph - N/A   Scattered Clouds
7:35 PM 78.6 °F - 62.6 °F 58% 30.06 in - North 3.5 mph - N/A   Clear
7:55 PM 77.5 °F - 63.3 °F 61% 30.06 in - Calm Calm - N/A   Clear
8:15 PM 73.0 °F - 67.1 °F 82% 30.06 in - Calm Calm - N/A   Clear
8:35 PM 70.0 °F - 66.7 °F 89% 30.06 in - Calm Calm - N/A   Unknown
8:55 PM 67.6 °F - 66.0 °F 95% 30.05 in - Calm Calm - N/A   Unknown
9:15 PM 66.4 °F - 65.7 °F 98% 30.06 in - Calm Calm - N/A   Unknown
9:35 PM 65.3 °F - 64.6 °F 98% 30.06 in - Calm Calm - N/A   Unknown
9:55 PM 64.2 °F - 63.5 °F 98% 30.07 in - Calm Calm - N/A   Unknown
10:15 PM 63.5 °F - 63.0 °F 98% 30.07 in - Calm Calm - N/A   Unknown
10:35 PM 62.8 °F - 62.2 °F 98% 30.07 in - Calm Calm - N/A   Unknown
10:55 PM 62.4 °F - 61.9 °F 98% 30.07 in - Calm Calm - N/A   Unknown
11:15 PM 61.9 °F - 61.7 °F 99% 30.07 in - Calm Calm - N/A   Unknown
11:35 PM 62.2 °F - 62.1 °F 99% 30.07 in - Calm Calm - N/A   Unknown
11:55 PM 61.0 °F - 60.6 °F 99% 30.07 in - Calm Calm - N/A   Unknown